Location: *
(48.8780°N, 19.2358°E)
Time: 04:31:38
(UTC+00:00)

Cosmos 1833 Rocket - Pass Details

Date: 18 October 2019
Orbit: 833 x 839 km, 71.0° (Epoch: 18 November)

Event Time Altitude Azimuth Distance (km) Brightness Sun altitude
Rises 16:32:38 0° 334° (NNW) 3,393 6.1 -8.0°
Reaches altitude 10° 16:35:14 10° 342° (NNW) 2,456 5.3 -8.4°
Maximum altitude 16:40:32 41° 52° (NE) 1,197 3.1 -9.3°
Drops below altitude 10° 16:45:50 10° 122° (ESE) 2,446 4.6 -10.2°
Enters shadow 16:47:02 - 127° (SE) 2,878 5.0 -10.4°
